H1 CPF 2 NER 2024 2 10 9 041 01 glonass132 H2 1401201 9132 39620 2024 2 10 0 0 0 2024 2 13 23 45 0 900 1 1 0 0 0 1 H9 10 0 60350 0.00000 0 -18857154.314 268996.486 -17126645.078 10 0 60350 900.00000 0 -20751084.938 -315889.668 -14772291.621 10 0 60350 1800.00000 0 -22390387.054 -663749.299 -12129852.176 10 0 60350 2700.00000 0 -23720982.418 -806308.929 -9250832.629 10 0 60350 3600.00000 0 -24698328.630 -784903.184 -6191380.652 10 0 60350 4500.00000 0 -25289237.322 -648473.575 -3011176.808 10 0 60350 5400.00000 0 -25473230.336 -451241.171 227745.821 10 0 60350 6300.00000 0 -25243376.196 -250154.010 3462228.739 10 0 60350 7200.00000 0 -24606571.629 -102219.742 6629235.981 10 0 60350 8100.00000 0 -23583256.931 -61838.861 9667096.777 10 0 60350 9000.00000 0 -22206578.394 -178253.428 12516717.075 10 0 60350 9900.00000 0 -20521034.667 -493220.865 15122735.109 10 0 60350 10800.00000 0 -18580665.850 -1039012.125 17434597.883 10 0 60350 11700.00000 0 -16446863.141 -1836819.152 19407537.583 10 0 60350 12600.00000 0 -14185892.434 -2895638.636 21003429.516 10 0 60350 13500.00000 0 -11866236.535 -4211678.428 22191516.020 10 0 60350 14400.00000 0 -9555867.410 -5768310.792 22948983.876 10 0 60350 15300.00000 0 -7319561.969 -7536573.548 23261385.795 10 0 60350 16200.00000 0 -5216372.092 -9476197.429 23122899.725 10 0 60350 17100.00000 0 -3297352.489 -11537116.345 22536422.715 10 0 60350 18000.00000 0 -1603638.686 -13661397.457 21513499.038 10 0 60350 18900.00000 0 -164952.543 -15785511.102 20074085.112 10 0 60350 19800.00000 0 1001405.180 -17842846.837 18246156.406 10 0 60350 20700.00000 0 1891035.749 -19766372.066 16065164.203 10 0 60350 21600.00000 0 2512379.043 -21491323.967 13573352.440 10 0 60350 22500.00000 0 2886110.247 -22957824.105 10818947.235 10 0 60350 23400.00000 0 3044023.074 -24113308.347 7855233.912 10 0 60350 24300.00000 0 3027446.996 -24914671.898 4739538.264 10 0 60350 25200.00000 0 2885265.049 -25330040.777 1532130.565 10 0 60350 26100.00000 0 2671615.289 -25340096.373 -1704927.554 10 0 60350 27000.00000 0 2443372.125 -24938897.613 -4908972.136 10 0 60350 27900.00000 0 2257513.007 -24134165.978 -8017939.779 10 0 60350 28800.00000 0 2168480.956 -22947020.550 -10971561.729 10 0 60350 29700.00000 0 2225653.869 -21411172.850 -13712526.714 10 0 60350 30600.00000 0 2471027.452 -19571613.636 -16187590.320 10 0 60350 31500.00000 0 2937210.061 -17482844.930 -18348609.579 10 0 60350 32400.00000 0 3645815.051 -15206729.481 -20153482.706 10 0 60350 33300.00000 0 4606320.026 -12810045.928 -21566975.521 10 0 60350 34200.00000 0 5815443.075 -10361850.467 -22561418.077 10 0 60350 35100.00000 0 7257064.733 -7930754.072 -23117257.282 10 0 60350 36000.00000 0 8902701.594 -5582228.271 -23223453.926 10 0 60350 36900.00000 0 10712514.408 -3376051.612 -22877715.222 10 0 60350 37800.00000 0 12636810.825 -1364003.544 -22086557.142 10 0 60350 38700.00000 0 14617981.853 412097.680 -20865193.907 10 0 60350 39600.00000 0 16592792.341 1921930.444 -19237255.457 10 0 60350 40500.00000 0 18494930.207 3147713.777 -17234337.158 10 0 60350 41400.00000 0 20257707.618 4084715.761 -14895389.528 10 0 60350 42300.00000 0 21816800.073 4741204.854 -12265959.296 10 0 60350 43200.00000 0 23112907.238 5137846.524 -9397296.464 10 0 60350 44100.00000 0 24094222.154 5306571.433 -6345345.150 10 0 60350 45000.00000 0 24718603.327 5288964.312 -3169638.876 10 0 60350 45900.00000 0 24955356.779 5134243.472 67876.814 10 0 60350 46800.00000 0 24786551.904 4896918.675 3304069.710 10 0 60350 47700.00000 0 24207815.098 4634228.948 6475868.477 10 0 60350 48600.00000 0 23228567.814 4403471.308 9521506.183 10 0 60350 49500.00000 0 21871699.657 4259335.727 12381733.994 10 0 60350 50400.00000 0 20172691.510 4251360.949 15000980.102 10 0 60350 51300.00000 0 18178227.057 4421620.025 17328430.661 10 0 60350 52200.00000 0 15944352.647 4802733.970 19319011.641 10 0 60350 53100.00000 0 13534264.141 5416297.343 20934253.010 10 0 60350 54000.00000 0 11015814.495 6271781.580 22143019.578 10 0 60350 54900.00000 0 8458846.742 7365961.312 22922095.857 10 0 60350 55800.00000 0 5932463.537 8682886.734 23256615.367 10 0 60350 56700.00000 0 3502346.153 10194402.135 23140327.993 10 0 60350 57600.00000 0 1228232.935 11861188.168 22575701.977 10 0 60350 58500.00000 0 -838339.990 13634283.794 21573860.146 10 0 60350 59400.00000 0 -2655944.340 15457024.427 20154352.747 10 0 60350 60300.00000 0 -4194735.078 17267315.837 18344771.989 10 0 60350 61200.00000 0 -5437436.880 19000149.866 16180216.001 10 0 60350 62100.00000 0 -6379802.999 20590258.189 13702612.331 10 0 60350 63000.00000 0 -7030529.500 21974794.777 10959913.453 10 0 60350 63900.00000 0 -7410629.997 23095936.481 8005178.976 10 0 60350 64800.00000 0 -7552298.103 23903294.394 4895561.208 10 0 60350 65700.00000 0 -7497305.729 24356036.164 1691212.528 10 0 60350 66600.00000 0 -7295004.501 24424630.900 -1545865.457 10 0 60350 67500.00000 0 -7000014.021 24092143.839 -4753009.755 10 0 60350 68400.00000 0 -6669693.690 23355026.322 -7868098.733 10 0 60350 69300.00000 0 -6361504.021 22223366.937 -10830747.243 10 0 60350 70200.00000 0 -6130368.162 20720592.024 -13583471.563 10 0 60350 71100.00000 0 -6026144.687 18882626.418 -16072801.949 10 0 60350 72000.00000 0 -6091318.356 16756547.620 -18250321.423 10 0 60350 72900.00000 0 -6359006.848 14398787.704 -20073610.640 10 0 60350 73800.00000 0 -6851368.576 11872956.111 -21507080.282 10 0 60350 74700.00000 0 -7578480.257 9247372.493 -22522674.404 10 0 60350 75600.00000 0 -8537733.525 6592411.080 -23100430.391 10 0 60350 76500.00000 0 -9713778.279 3977766.231 -23228883.781 10 0 60350 77400.00000 0 -11079017.605 1469752.535 -22905309.002 10 0 60350 78300.00000 0 -12594635.880 -871248.173 -22135790.063 10 0 60350 79200.00000 0 -14212118.968 -2993086.299 -20935118.514 10 0 60350 80100.00000 0 -15875204.334 -4853794.036 -19326519.255 10 0 60350 81000.00000 0 -17522180.201 -6423102.976 -17341208.360 10 0 60350 81900.00000 0 -19088437.518 -7683465.811 -15017790.469 10 0 60350 82800.00000 0 -20509167.075 -8630538.973 -12401506.926 10 0 60350 83700.00000 0 -21722087.337 -9273106.052 -9543349.117 10 0 60350 84600.00000 0 -22670086.742 -9632445.783 -6499054.676 10 0 60350 85500.00000 0 -23303667.400 -9741172.335 -3328007.013 10 0 60351 0.00000 0 -23583085.497 -9641598.527 -92061.298 10 0 60351 900.00000 0 -23480096.717 -9383693.141 3145680.289 10 0 60351 1800.00000 0 -22979231.736 -9022721.350 6322113.871 10 0 60351 2700.00000 0 -22078548.010 -8616670.389 9375379.405 10 0 60351 3600.00000 0 -20789825.840 -8223571.966 12246076.186 10 0 60351 4500.00000 0 -19138201.388 -7898836.712 14878425.070 10 0 60351 5400.00000 0 -17161253.154 -7692714.912 17221353.801 10 0 60351 6300.00000 0 -14907581.682 -7647991.704 19229484.219 10 0 60351 7200.00000 0 -12434943.391 -7798014.205 20864002.642 10 0 60351 8100.00000 0 -9808017.812 -8165133.303 22093397.598 10 0 60351 9000.00000 0 -7095902.175 -8759624.794 22894052.114 10 0 60351 9900.00000 0 -4369437.967 -9579133.979 23250680.860 10 0 60351 10800.00000 0 -1698480.210 -10608665.748 23156605.567 10 0 60351 11700.00000 0 850778.224 -11821119.365 22613865.209 10 0 60351 12600.00000 0 3218317.887 -13178344.700 21633160.355 10 0 60351 13500.00000 0 5352537.607 -14632675.240 20233633.963 10 0 60351 14400.00000 0 7212142.275 -16128873.838 18442493.574 10 0 60351 15300.00000 0 8767597.719 -17606410.337 16294482.477 10 0 60351 16200.00000 0 10002094.688 -19001976.740 13831209.855 10 0 60351 17100.00000 0 10911984.092 -20252136.000 11100352.281 10 0 60351 18000.00000 0 11506667.107 -21295994.935 8154741.151 10 0 60351 18900.00000 0 11807946.075 -22077790.627 5051352.583 10 0 60351 19800.00000 0 11848864.109 -22549283.085 1850218.187 10 0 60351 20700.00000 0 11672082.325 -22671854.541 -1386723.414 10 0 60351 21600.00000 0 11327862.703 -22418227.718 -4596813.115 10 0 60351 22500.00000 0 10871740.938 -21773730.725 -7717873.926 10 0 60351 23400.00000 0 10361986.563 -20737054.793 -10689407.066 10 0 60351 24300.00000 0 9856956.738 -19320471.778 -13453758.954 10 0 60351 25200.00000 0 9412454.675 -17549500.508 -15957236.927 10 0 60351 26100.00000 0 9079203.900 -15462033.958 -18151152.177 10 0 60351 27000.00000 0 8900544.926 -13106961.534 -19992769.704 10 0 60351 27900.00000 0 8910452.068 -10542341.757 -21446146.665 10 0 60351 28800.00000 0 9131954.973 -7833199.556 -22482842.376 10 0 60351 29700.00000 0 9576032.892 -5049038.141 -23082485.583 10 0 60351 30600.00000 0 10241030.064 -2261167.704 -23233187.093 10 0 60351 31500.00000 0 11112618.926 460038.796 -22931788.685 10 0 60351 32400.00000 0 12164314.819 3047848.996 -22183942.207 10 0 60351 33300.00000 0 13358522.557 5441721.119 -21004015.993 10 0 60351 34200.00000 0 14648072.521 7589593.980 -19414829.043 10 0 60351 35100.00000 0 15978182.838 9449820.913 -17447216.943 10 0 60351 36000.00000 0 17288765.606 10992666.251 -15139436.919 10 0 60351 36900.00000 0 18516979.961 12201301.163 -12536423.017 10 0 60351 37800.00000 0 19599923.622 13072256.946 -9688905.739 10 0 60351 38700.00000 0 20477348.117 13615316.928 -6652413.596 10 0 60351 39600.00000 0 21094281.456 13852852.324 -3486176.955 10 0 60351 40500.00000 0 21403445.691 13818631.347 -251956.874 10 0 60351 41400.00000 0 21367365.553 13556153.739 2987176.591 10 0 60351 42300.00000 0 20960077.670 13116583.319 6168090.859 10 0 60351 43200.00000 0 20168367.271 12556368.455 9228835.921 10 0 60351 44100.00000 0 18992479.805 11934653.577 12109862.140 10 0 60351 45000.00000 0 17446277.676 11310593.410 14755185.724 10 0 60351 45900.00000 0 15556836.213 10740685.237 17113478.397 10 0 60351 46800.00000 0 13363496.881 10276233.014 19139059.972 10 0 60351 47700.00000 0 10916418.636 9961050.798 20792774.920 10 0 60351 48600.00000 0 8274689.188 9829502.030 22042737.002 10 0 60351 49500.00000 0 5504075.833 9904956.323 22864928.974 10 0 60351 50400.00000 0 2674510.020 10198727.329 23243647.537 10 0 60351 51300.00000 0 -142589.939 10709534.716 23171786.793 10 0 60351 52200.00000 0 -2877047.638 11423511.253 22650956.555 10 0 60351 53100.00000 0 -5462596.968 12314753.317 21691434.797 10 0 60351 54000.00000 0 -7839381.426 13346390.773 20311956.376 10 0 60351 54900.00000 0 -9956182.983 14472130.900 18539342.873 10 0 60351 55800.00000 0 -11772290.452 15638211.711 16407980.989 10 0 60351 56700.00000 0 -13258932.289 16785683.389 13959159.411 10 0 60351 57600.00000 0 -14400216.500 17852923.153 11240276.366 10 0 60351 58500.00000 0 -15193540.399 18778279.250 8303932.326 10 0 60351 59400.00000 0 -15649454.728 19502734.579 5206924.353 10 0 60351 60300.00000 0 -15790988.652 19972479.182 2009160.320 10 0 60351 61200.00000 0 -15652464.345 20141284.382 -1227487.151 10 0 60351 62100.00000 0 -15277850.975 19972579.484 -4440365.891 10 0 60351 63000.00000 0 -14718726.787 19441143.708 -7567246.562 10 0 60351 63900.00000 0 -14031934.359 18534341.734 -10547519.645 10 0 60351 64800.00000 0 -13277026.923 17252849.770 -13323364.451 10 0 60351 65700.00000 0 -12513612.623 15610840.024 -15840867.928 10 0 60351 66600.00000 0 -11798708.012 13635613.780 -18051071.700 10 0 60351 67500.00000 0 -11184212.058 11366696.051 -19910927.086 10 0 60351 68400.00000 0 -10714607.176 8854427.177 -21384139.360 10 0 60351 69300.00000 0 -10424984.660 6158107.755 -22441884.431 10 0 60351 70200.00000 0 -10339478.641 3343772.030 -23063383.410 10 0 60351 71100.00000 0 -10470175.823 481680.671 -23236323.042 10 0 60351 72000.00000 0 -10816548.536 -2356364.072 -22957112.770 10 0 60351 72900.00000 0 -11365436.731 -5099769.920 -22230972.206 10 0 60351 73800.00000 0 -12091581.445 -7681858.679 -21071845.977 10 0 60351 74700.00000 0 -12958688.830 -10042410.134 -19502146.263 10 0 60351 75600.00000 0 -13920981.108 -12129939.192 -17552326.808 10 0 60351 76500.00000 0 -14925169.792 -13903610.590 -15260295.662 10 0 60351 77400.00000 0 -15912767.999 -15334710.382 -12670677.457 10 0 60351 78300.00000 0 -16822643.713 -16407612.097 -9833939.389 10 0 60351 79200.00000 0 -17593705.056 -17120196.876 -6805398.198 10 0 60351 80100.00000 0 -18167602.470 -17483710.262 -3644128.387 10 0 60351 81000.00000 0 -18491331.737 -17522062.607 -411794.252 10 0 60351 81900.00000 0 -18519625.858 -17270604.085 2828569.887 10 0 60351 82800.00000 0 -18217032.941 -16774428.000 6013805.512 10 0 60351 83700.00000 0 -17559590.916 -16086276.405 9081875.697 10 0 60351 84600.00000 0 -16536027.508 -15264138.970 11973084.865 10 0 60351 85500.00000 0 -15148434.597 -14368648.929 14631247.424 10 0 60352 0.00000 0 -13412388.969 -13460388.124 17004781.524 10 0 60352 900.00000 0 -11356514.095 -12597215.880 19047707.727 10 0 60352 1800.00000 0 -9021504.683 -11831736.265 20720530.436 10 0 60352 2700.00000 0 -6458652.759 -11209008.803 21990990.241 10 0 60352 3600.00000 0 -3727939.934 -10764599.420 22834670.813 10 0 60352 4500.00000 0 -895775.068 -10523051.760 23235451.650 10 0 60352 5400.00000 0 1967528.393 -10496841.376 23185799.590 10 0 60352 6300.00000 0 4790431.145 -10685854.786 22686895.286 10 0 60352 7200.00000 0 7502892.747 -11077413.393 21748593.776 10 0 60352 8100.00000 0 10039030.990 -11646839.689 20389221.160 10 0 60352 9000.00000 0 12339607.687 -12358540.924 18635212.096 10 0 60352 9900.00000 0 14354240.055 -13167564.194 16520595.422 10 0 60352 10800.00000 0 16043248.238 -14021557.758 14086337.712 10 0 60352 11700.00000 0 17379064.449 -14863056.730 11379556.856 10 0 60352 12600.00000 0 18347147.067 -15631998.141 8452620.072 10 0 60352 13500.00000 0 18946363.162 -16268360.777 5362142.676 10 0 60352 14400.00000 0 19188824.505 -16714819.947 2167905.791 10 0 60352 15300.00000 0 19099184.606 -16919306.598 -1068287.175 10 0 60352 16200.00000 0 18713426.221 -16837363.674 -4283794.305 10 0 60352 17100.00000 0 18077189.981 -16434200.875 -7416337.221 10 0 60352 18000.00000 0 17243713.685 -15686361.109 -10405198.879 10 0 60352 18900.00000 0 16271468.046 -14582927.557 -13192394.508 10 0 60352 19800.00000 0 15221587.424 -13126219.155 -15723793.441 10 0 60352 20700.00000 0 14155202.918 -11331943.315 -17950170.226 10 0 60352 21600.00000 0 13130789.422 -9228797.073 -19828164.666 10 0 60352 22500.00000 0 12201638.031 -6857530.751 -21321131.970 10 0 60352 23400.00000 0 11413560.213 -4269510.553 -22399866.074 10 0 60352 24300.00000 0 10802920.843 -1524837.599 -23043181.490 10 0 60352 25200.00000 0 10395083.663 1309900.521 -23238341.531 10 0 60352 26100.00000 0 10203335.746 4164153.752 -22981323.533 10 0 60352 27000.00000 0 10228337.566 6966105.369 -22276914.707 10 0 60352 27900.00000 0 10458123.248 9645428.036 -21138635.451 10 0 60352 28800.00000 0 10868652.337 12135985.484 -19588490.246 10 0 60352 29700.00000 0 11424890.891 14378366.859 -17656549.769 10 0 60352 30600.00000 0 12082376.995 16322147.353 -15380371.323 10 0 60352 31500.00000 0 12789204.761 17927779.805 -12804268.205 10 0 60352 32400.00000 0 13488342.570 19168037.297 -9978442.022 10 0 60352 33300.00000 0 14120186.565 20028945.773 -6957995.120 10 0 60352 34200.00000 0 14625239.844 20510167.370 -3801843.220 10 0 60352 35100.00000 0 14946802.152 20624818.774 -571550.703 10 0 60352 36000.00000 0 15033554.202 20398733.323 2669887.111 10 0 60352 36900.00000 0 14841925.301 19869199.558 5859289.057 10 0 60352 37800.00000 0 14338142.468 19083231.529 8934534.483 10 0 60352 38700.00000 0 13499873.151 18095446.180 11835784.870 10 0 60352 39600.00000 0 12317391.514 16965639.794 14506655.570 10 0 60352 40500.00000 0 10794218.943 15756167.867 16895314.013 10 0 60352 41400.00000 0 8947212.136 14529240.582 18955482.805 10 0 60352 42300.00000 0 6806095.797 13344248.855 20647328.583 10 0 60352 43200.00000 0 4412460.352 12255233.752 21938220.315 10 0 60352 44100.00000 0 1818267.403 11308605.165 22803343.825 10 0 60352 45000.00000 0 -916074.063 10541204.339 23226162.324 10 0 60352 45900.00000 0 -3723980.433 9978789.779 23198715.952 10 0 60352 46800.00000 0 -6535220.982 9635007.906 22721756.382 10 0 60352 47700.00000 0 -9278595.992 9510889.398 21804715.471 10 0 60352 48600.00000 0 -11884655.711 9594890.238 20465509.869 10 0 60352 49500.00000 0 -14288349.176 9863474.044 18730186.151 10 0 60352 50400.00000 0 -16431495.035 10282210.039 16632413.686 10 0 60352 51300.00000 0 -18264974.041 10807339.969 14212834.924 10 0 60352 52200.00000 0 -19750554.225 11387748.120 11518285.081 10 0 60352 53100.00000 0 -20862274.847 11967252.149 8600895.507 10 0 60352 54000.00000 0 -21587332.994 12487119.233 5517096.970 10 0 60352 54900.00000 0 -21926437.040 12888702.687 2326540.967 10 0 60352 55800.00000 0 -21893612.737 13116088.999 -909041.262 10 0 60352 56700.00000 0 -21515470.271 13118644.580 -4127021.040 10 0 60352 57600.00000 0 -20829962.800 12853355.523 -7265073.917 10 0 60352 58500.00000 0 -19884687.850 12286861.663 -10262378.246 10 0 60352 59400.00000 0 -18734801.995 11397098.744 -13060788.006 10 0 60352 60300.00000 0 -17440635.442 10174478.383 -15605957.583 10 0 60352 61200.00000 0 -16065105.715 8622554.417 -17848396.883 10 0 60352 62100.00000 0 -14671038.305 6758145.424 -19744436.326 10 0 60352 63000.00000 0 -13318506.226 4610905.631 -21257082.834 10 0 60352 63900.00000 0 -12062299.960 2222359.411 -22356749.771 10 0 60352 64800.00000 0 -10949634.141 -355563.108 -23021846.049 10 0 60352 65700.00000 0 -10018187.690 -3062430.794 -23239212.139 10 0 60352 66600.00000 0 -9294560.514 -5831579.366 -23004393.459 10 0 60352 67500.00000 0 -8793212.556 -8592649.581 -22321744.614 10 0 60352 68400.00000 0 -8515930.906 -11274291.108 -21204361.172 10 0 60352 69300.00000 0 -8451848.463 -13806919.881 -19673838.927 10 0 60352 70200.00000 0 -8578014.263 -16125413.862 -17759864.149 10 0 60352 71100.00000 0 -8860492.000 -18171634.171 -15499641.726 10 0 60352 72000.00000 0 -9255940.546 -19896665.305 -12937171.662 10 0 60352 72900.00000 0 -9713609.291 -21262679.731 -10122387.798 10 0 60352 73800.00000 0 -10177663.035 -22244347.832 -7110175.737 10 0 60352 74700.00000 0 -10589736.584 -22829733.424 -3959289.927 10 0 60352 75600.00000 0 -10891609.045 -23020637.146 -731192.259 10 0 60352 76500.00000 0 -11027882.495 -22832373.754 2511163.604 10 0 60352 77400.00000 0 -10948549.452 -22292993.851 5704576.563 10 0 60352 78300.00000 0 -10611338.507 -21441984.519 8786844.981 10 0 60352 79200.00000 0 -9983737.329 -20328505.721 11697990.138 10 0 60352 80100.00000 0 -9044606.448 -19009239.116 14381431.017 10 0 60352 81000.00000 0 -7785315.191 -17545942.126 16785086.681 10 0 60352 81900.00000 0 -6210351.899 -16002812.140 18862384.573 10 0 60352 82800.00000 0 -4337383.207 -14443773.093 20573155.421 10 0 60352 83700.00000 0 -2196760.593 -12929799.068 21884398.355 10 0 60352 84600.00000 0 169504.390 -11516387.077 22770902.782 10 0 60352 85500.00000 0 2709252.689 -10251284.089 23215716.695 10 0 60353 0.00000 0 5362114.484 -9172561.946 23210454.285 10 0 60353 900.00000 0 8061790.947 -8307118.114 22755438.630 10 0 60353 1800.00000 0 10738583.155 -7669663.993 21859678.467 10 0 60353 2700.00000 0 13322068.884 -7262238.771 20540680.773 10 0 60353 3600.00000 0 15743814.175 -7074268.421 18824103.526 10 0 60353 4500.00000 0 17940010.301 -7083164.950 16743255.804 10 0 60353 5400.00000 0 19853928.358 -7255439.588 14338454.762 10 0 60353 6300.00000 0 21438091.578 -7548282.525 11656251.395 10 0 60353 7200.00000 0 22656076.820 -7911542.805 8748539.242 10 0 60353 8100.00000 0 23483871.731 -8290025.454 5671562.171 10 0 60353 9000.00000 0 23910732.224 -8626009.993 2484839.295 10 0 60353 9900.00000 0 23939505.012 -8861885.072 -749973.409 10 0 60353 10800.00000 0 23586401.992 -8942789.067 -3970263.803 10 0 60353 11700.00000 0 22880235.687 -8819145.964 -7113664.806 10 0 60353 12600.00000 0 21861147.124 -8448989.879 -10119253.586 10 0 60353 13500.00000 0 20578878.533 -7799979.964 -12928726.151 10 0 60353 14400.00000 0 19090662.135 -6851019.935 -15487525.009 10 0 60353 15300.00000 0 17458812.458 -5593412.619 -17745898.215 10 0 60353 16200.00000 0 15748122.083 -4031498.982 -19659869.288 10 0 60353 17100.00000 0 14023169.145 -2182752.332 -21192099.013 10 0 60353 18000.00000 0 12345648.878 -77320.993 -22312621.969 10 0 60353 18900.00000 0 10771840.797 2242964.281 -22999442.883 10 0 60353 19800.00000 0 9350317.770 4726079.497 -23238980.414 10 0 60353 20700.00000 0 8119993.396 7311733.509 -23026348.679 10 0 60353 21600.00000 0 7108590.246 9933652.729 -22365469.892 10 0 60353 22500.00000 0 6331594.032 12522130.664 -21269014.583 10 0 60353 23400.00000 0 5791738.486 15006736.755 -19758169.249 10 0 60353 24300.00000 0 5479043.314 17319071.685 -17862234.739 10 0 60353 25200.00000 0 5371404.110 19395453.711 -15618062.099 10 0 60353 26100.00000 0 5435709.472 21179422.831 -13069336.222 10 0 60353 27000.00000 0 5629437.782 22623956.888 -10265720.963 10 0 60353 27900.00000 0 5902665.293 23693305.552 -7261882.584 10 0 60353 28800.00000 0 6200399.160 24364364.204 -4116411.336 10 0 60353 29700.00000 0 6465134.827 24627529.430 -890663.423 10 0 60353 30600.00000 0 6639527.309 24487000.057 2352452.515 10 0 60353 31500.00000 0 6669060.971 23960511.638 5549718.875 10 0 60353 32400.00000 0 6504602.595 23078516.759 8638856.418 10 0 60353 33300.00000 0 6104727.776 21882847.381 11559749.453 10 0 60353 34200.00000 0 5437720.894 20424917.603 14255623.588 10 0 60353 35100.00000 0 4483163.270 18763544.628 16674152.240 10 0 60353 36000.00000 0 3233042.254 16962481.538 18768470.081 10 0 60353 36900.00000 0 1692334.702 15087767.111 20498074.014 10 0 60353 37800.00000 0 -120959.093 13205004.856 21829595.059 10 0 60353 38700.00000 0 -2176331.734 11376685.452 22737427.599 10 0 60353 39600.00000 0 -4431812.970 9659664.149 23204205.456 10 0 60353 40500.00000 0 -6835497.722 8102897.228 23221117.483 10 0 60353 41400.00000 0 -9327494.004 6745530.134 22788058.426 10 0 60353 42300.00000 0 -11842209.896 5615414.751 21913613.762 10 0 60353 43200.00000 0 -14310885.177 4728115.109 20614880.161 10 0 60353 44100.00000 0 -16664263.629 4086440.500 18917125.892 10 0 60353 45000.00000 0 -18835296.467 3680523.225 16853298.170 10 0 60353 45900.00000 0 -20761766.345 3488435.855 14463386.868 10 0 60353 46800.00000 0 -22388724.684 3477320.859 11793656.407 10 0 60353 47700.00000 0 -23670642.540 3604984.507 8895759.840 10 0 60353 48600.00000 0 -24573187.197 3821888.026 5825751.260 10 0 60353 49500.00000 0 -25074551.297 4073452.623 2643014.378 10 0 60353 50400.00000 0 -25166279.640 4302581.902 -590873.174 10 0 60353 51300.00000 0 -24853559.505 4452296.247 -3813318.933 10 0 60353 52200.00000 0 -24154961.977 4468368.767 -6961916.292 10 0 60353 53100.00000 0 -23101644.449 4301852.094 -9975644.300 10 0 60353 54000.00000 0 -21736046.655 3911389.543 -12796043.972 10 0 60353 54900.00000 0 -20110133.562 3265212.675 -15368348.775 10 0 60353 55800.00000 0 -18283257.416 2342740.082 -17642547.507 10 0 60353 56700.00000 0 -16319727.154 1135708.461 -19574359.068 10 0 60353 57600.00000 0 -14286185.780 -351213.731 -21126099.980 10 0 60353 58500.00000 0 -12248904.561 -2100358.352 -22267427.443 10 0 60353 59400.00000 0 -10271106.647 -4081541.044 -22975942.906 10 0 60353 60300.00000 0 -8410431.809 -6253078.720 -23237643.604 10 0 60353 61200.00000 0 -6716648.478 -8563301.190 -23047212.258 10 0 60353 62100.00000 0 -5229709.161 -10952496.126 -22408138.128 10 0 60353 63000.00000 0 -3978231.263 -13355207.941 -21332665.734 10 0 60353 63900.00000 0 -2978467.643 -15702795.770 -19841570.950 10 0 60353 64800.00000 0 -2233810.705 -17926144.182 -17963767.549 10 0 60353 65700.00000 0 -1734851.286 -19958413.173 -15735750.835 10 0 60353 66600.00000 0 -1459989.958 -21737711.630 -13200888.480 10 0 60353 67500.00000 0 -1376574.631 -23209581.168 -10408572.091 10 0 60353 68400.00000 0 -1442515.624 -24329184.842 -7413246.225 10 0 60353 69300.00000 0 -1608308.586 -25063107.505 -4273334.511 10 0 60353 70200.00000 0 -1819377.884 -25390691.121 -1050085.004 10 0 60353 71100.00000 0 -2018639.100 -25304848.236 2193641.163 10 0 60353 72000.00000 0 -2149169.759 -24812319.348 5394612.369 10 0 60353 72900.00000 0 -2156872.861 -23933363.971 8490474.256 10 0 60353 73800.00000 0 -1993018.333 -22700899.579 11420976.614 10 0 60353 74700.00000 0 -1616553.187 -21159126.375 14129154.064 10 0 60353 75600.00000 0 -996081.544 -19361697.622 16562436.638 10 0 60353 76500.00000 0 -111430.386 -17369514.357 18673668.327 10 0 60353 77400.00000 0 1045265.009 -15248238.731 20422014.042 10 0 60353 78300.00000 0 2469001.183 -13065631.373 21773738.251 10 0 60353 79200.00000 0 4141894.972 -10888824.749 22702841.546 10 0 60353 80100.00000 0 6033720.000 -8781646.267 23191544.481 10 0 60353 81000.00000 0 8102968.035 -6802101.882 23230611.184 10 0 60353 81900.00000 0 10298390.441 -5000123.425 22819508.359 10 0 60353 82800.00000 0 12560955.375 -3415671.350 21966398.224 10 0 60353 83700.00000 0 14826139.579 -2077269.360 20687966.920 10 0 60353 84600.00000 0 17026460.241 -1001029.260 19009092.558 10 0 60353 85500.00000 0 19094142.810 -190204.149 16962359.796 99